Change the Weather History Date:

Tuesday, October 16, 2012

  Actual Average Record
Temperature  
Mean Temperature 30 °F 40 °F  
Max Temperature 33 °F 46 °F 58 °F (1982)
Min Temperature 27 °F 34 °F 22 °F (1970)
Degree Days  
Heating Degree Days 35 25  
Month to date heating degree days 334 361  
Since 1 July heating degree days 1564 1459  
Cooling Degree Days 0    
Month to date cooling degree days 0  
Year to date cooling degree days 0  
Moisture  
Dew Point 17 °F    
Average Humidity 0    
Maximum Humidity 0    
Minimum Humidity 0    
Precipitation  
Precipitation T in 0.26 in 3.07 in (1978)
Month to date precipitation 4.55 4.39  
Year to date precipitation 47.60 58.53  
Snow  
Snow 0.10 in 0.00 in 1.10 in (2001)
Month to date snowfall 0.2 0.2  
Since 1 July snowfall 0.2 0.2  
Since 1 September snowfall 0.2 0.2  
Snow Depth T in    
Sea Level Pressure  
Sea Level Pressure 29.37 in    
Wind  
Wind Speed 11 mph (West)    
Max Wind Speed 23 mph    
Max Gust Speed 32 mph    
Visibility 9 miles    
Events Snow    
T = Trace of Precipitation, MM = Missing Value Source: NWS Daily Summary

Daily Weather History Graph

Daily Weather History Graph

Search for Another Location

Airport or City:

Trip Planner

Search our weather history database for the weather conditions in past years. The results will help you decide how hot, cold, wet, or windy it might be!

Date:

Astronomy

Oct. 16, 2012 Rise Set
Actual Time 8:48 AM AKDT 7:01 PM AKDT
Civil Twilight 8:08 AM AKDT 7:40 PM AKDT
Nautical Twilight 7:23 AM AKDT 8:25 PM AKDT
Astronomical Twilight 6:38 AM AKDT 9:11 PM AKDT
Moon 10:55 AM AKDT (10/16) 7:19 PM AKDT (10/16)
Length of Visible Light 11h 32m
Length of Day
10h 12m
Waxing Crescent, 3% of the Moon is Illuminated
Oct 16
Waxing Crescent
Oct 21
First Quarter
Oct 29
Full
Nov 6
Last Quarter
Nov 13
New

Hourly Weather History & Observations

Time (AKDT) Temp. Windchill Dew Point Humidity Pressure Visibility Wind Dir Wind Speed Gust Speed Precip Events Conditions
12:13 AM 30.2 °F 19.8 °F 23.0 °F 75% 29.22 in 3.0 mi WNW 13.8 mph 21.9 mph 0.00 in Snow Light Snow
12:33 AM 30.2 °F 19.8 °F 21.2 °F 69% 29.23 in 9.0 mi WSW 13.8 mph 23.0 mph 0.00 in   Overcast
12:53 AM 30.0 °F 20.5 °F 21.9 °F 72% 29.24 in 6.0 mi WSW 11.5 mph 21.9 mph 0.00 in Snow Light Snow
1:53 AM 30.0 °F 21.1 °F 21.0 °F 69% 29.26 in 6.0 mi West 10.4 mph 19.6 mph 0.00 in Snow Light Snow
2:25 AM 28.4 °F 21.2 °F 21.2 °F 74% 29.26 in 2.5 mi Variable 6.9 mph 18.4 mph 0.00 in Snow Light Snow
2:39 AM 28.4 °F 18.5 °F 23.0 °F 80% 29.27 in 5.0 mi West 11.5 mph - 0.00 in Snow Light Snow
2:53 AM 28.9 °F 21.1 °F 21.9 °F 75% 29.27 in 8.0 mi West 8.1 mph - 0.00 in Snow Light Snow
3:53 AM 30.0 °F 23.2 °F 18.0 °F 61% 29.28 in 10.0 mi WNW 6.9 mph 16.1 mph 0.00 in   Overcast
4:53 AM 30.0 °F 21.7 °F 12.0 °F 47% 29.30 in 10.0 mi WSW 9.2 mph - N/A   Overcast
5:53 AM 28.9 °F 17.7 °F 12.9 °F 51% 29.31 in 10.0 mi SW 15.0 mph 18.4 mph N/A   Scattered Clouds
6:53 AM 28.9 °F 20.4 °F 12.9 °F 51% 29.32 in 10.0 mi West 9.2 mph - N/A   Partly Cloudy
7:53 AM 28.0 °F 20.0 °F 12.0 °F 51% 29.33 in 10.0 mi WSW 8.1 mph - N/A   Scattered Clouds
8:53 AM 28.0 °F 21.7 °F 12.0 °F 51% 29.34 in 10.0 mi SW 5.8 mph - N/A   Partly Cloudy
9:53 AM 28.9 °F 19.2 °F 12.0 °F 49% 29.35 in 10.0 mi WSW 11.5 mph 23.0 mph N/A   Partly Cloudy
10:53 AM 30.9 °F 21.2 °F 12.9 °F 47% 29.37 in 10.0 mi WSW 12.7 mph - N/A   Scattered Clouds
11:53 AM 30.9 °F 21.2 °F 12.9 °F 47% 29.38 in 10.0 mi SW 12.7 mph - N/A   Scattered Clouds
12:53 PM 30.9 °F 22.2 °F 14.0 °F 50% 29.39 in 10.0 mi SW 10.4 mph 21.9 mph N/A   Mostly Cloudy
1:53 PM 32.0 °F 24.8 °F 14.0 °F 48% 29.40 in 10.0 mi WSW 8.1 mph 25.3 mph N/A   Mostly Cloudy
2:53 PM 32.0 °F 19.8 °F 16.0 °F 52% 29.41 in 10.0 mi WNW 20.7 mph 26.5 mph N/A   Mostly Cloudy
3:53 PM 32.0 °F 20.5 °F 16.0 °F 52% 29.42 in 10.0 mi West 18.4 mph 29.9 mph N/A   Mostly Cloudy
4:53 PM 32.0 °F 20.8 °F 15.1 °F 50% 29.43 in 9.0 mi WNW 17.3 mph 21.9 mph 0.00 in   Mostly Cloudy
5:53 PM 32.0 °F 20.1 °F 17.1 °F 54% 29.44 in 10.0 mi West 19.6 mph 28.8 mph N/A   Overcast
6:53 PM 30.0 °F 20.0 °F 21.0 °F 69% 29.47 in 8.0 mi West 12.7 mph 21.9 mph 0.00 in Snow Light Snow
7:53 PM 30.0 °F 23.2 °F 21.0 °F 69% 29.48 in 10.0 mi SSW 6.9 mph - 0.00 in   Overcast
8:53 PM 32.0 °F 28.7 °F 18.0 °F 56% 29.50 in 10.0 mi WNW 3.5 mph - N/A   Overcast
9:53 PM 32.0 °F 24.2 °F 17.1 °F 54% 29.53 in 10.0 mi West 9.2 mph 17.3 mph N/A   Overcast
10:53 PM 32.0 °F 25.6 °F 18.0 °F 56% 29.55 in 10.0 mi WNW 6.9 mph - N/A   Overcast
11:53 PM 32.0 °F 24.8 °F 18.0 °F 56% 29.57 in 10.0 mi West 8.1 mph - N/A   Overcast